Torna al catalogo

STARLINK-31169

AttivoComunicazioniVLEO
NORAD 58809·PAYLOAD·🇺🇸 United States

Lanciato Jan 15, 2024 da Cape Canaveral Space Force Station

Loading…

Prossimi Passaggi (prossime 24 ore)

TLE

AggiornatoSource: CelesTrak SupGP

Epoca: Sep 14, 2026, 20:42 UTC

1 58809C 24012Y   26257.86298611 -.00009842  00000+0 -35644-3 0  2578
2 58809  43.0021 176.9867 0001411 262.0287 200.9592 15.27586902    13

Traccia STARLINK-31169 in tempo reale con AllMySat

Download on the App Store